Flag for Germany Weather past 2 weeks in Bochum, North Rhine-Westphalia, Germany

Now
50 °F

Clear.


Feels Like: 48 °F
Forecast: 49 / 67 °F
Wind: 7 mph from Southwest

Location: Duesseldorf

Current Time: May 7, 2015 at 2:42:13 AM

Latest Report: May 7, 2015 at 2:00 AM


Visibility: 31 mi

Pressure: 29.97 "Hg

Humidity: 74%

Dew point: 42 °F

Location of BochumLocation

Historic Weather in Bochum — Graph

°F

Bochum temperature yesterday

Maximum temperature yesterday: 63 °F (at 2:00 PM)
Minimum temperature yesterday: 50 °F (at 6:00 AM)
Average temperature yesterday: 56 °F

Past Weeks' High & Low Weather Summary

 TemperatureHumidityPressure
High73 °F (May 5, 1:00 PM)99% (May 1, 3:00 AM)30.47 "Hg (May 1, 3:00 AM)
Low33 °F (May 1, 6:00 AM)31% (Apr 24, 4:00 PM)29.41 "Hg (May 5, 4:00 AM)
Average53 °F71%29.87 "Hg
* Reported Apr 22 1:00 AM — May 7 1:00 AM, Bochum, Weather by CustomWeather, © 2015

Note: Actual official high and low records may vary slightly from our data, if they occured in-between our weather recording intervals... More about our weather records

Advertising

Bochum weather history for previous 24 hours

 ConditionsComfort  
Time TempWeatherWind HumidityBarometerVisibility
1:00 AM
Thu, May 7
51 °FCool.7 mph72%29.96 "HgN/A
12:00 AM52 °FPassing clouds.7 mph71%29.95 "Hg31 mi
11:00 PM
Wed, May 6
52 °FPassing clouds.7 mph68%29.94 "Hg31 mi
10:00 PM53 °FPassing clouds.8 mph61%29.91 "Hg31 mi
9:00 PM57 °FScattered clouds.10 mph60%29.89 "Hg31 mi
8:00 PM57 °FThunderstorms. Scattered clouds.6 mph66%29.88 "Hg37 mi
7:00 PM53 °FThundershowers. Overcast.2 mph76%29.89 "Hg25 mi
6:00 PM54 °FSprinkles. Overcast.12 mph60%29.90 "Hg25 mi
5:00 PM58 °FPartly sunny.14 mph54%29.86 "Hg31 mi
4:00 PM61 °FScattered clouds.10 mph59%29.85 "Hg31 mi
3:00 PM58 °FPartly sunny.8 mph63%29.86 "Hg31 mi
2:00 PM63 °FScattered clouds.12 mph44%29.85 "Hg34 mi
1:00 PM61 °FScattered clouds.10 mph47%29.86 "Hg28 mi
12:00 PM59 °FScattered clouds.12 mph48%29.87 "Hg22 mi
11:00 AM60 °FPassing clouds.10 mph53%29.87 "Hg22 mi
10:00 AM57 °FPassing clouds.10 mph56%29.88 "Hg19 mi
9:00 AM56 °FPassing clouds.7 mph64%29.88 "Hg19 mi
8:00 AM53 °FSunny.6 mph70%29.87 "Hg19 mi
7:00 AM52 °FPassing clouds.6 mph70%29.85 "Hg19 mi
6:00 AM50 °FPassing clouds.5 mph72%29.85 "Hg25 mi
4:00 AM52 °FPassing clouds.5 mph74%29.85 "Hg31 mi
3:00 AM54 °FPassing clouds.7 mph71%29.84 "Hg31 mi
2:00 AM56 °FPassing clouds.7 mph69%29.83 "Hg25 mi
Weather by CustomWeather, © 2015

See weather overviewHow to use our weather pages